Lapse_Rate
7.0 7.1 6.9 6.8 6.9 6.6 6.4 6.3 6.1 6.2 6.2 6.2 6.2 6.1 6.0 6.2 6.2 6.2 6.4 6.4 6.5 6.4 6.5 6.6 6.6 6.6 6.3 6.1 5.9 5.6 5.5 5.6
7.0 7.0 7.0 7.1 7.1 6.6 6.2 6.0 6.1 6.2 6.3 6.2 6.1 6.1 6.2 6.2 6.5 6.6 6.4 6.3 6.3 6.3 6.3 6.3 6.2 6.1 5.8 5.7 5.6 5.6 5.5 5.5
7.2 7.3 7.4 7.4 7.0 6.6 6.3 6.2 6.2 6.2 6.2 6.1 6.1 6.1 6.2 6.5 6.5 6.4 6.3 6.3 6.3 6.3 6.4 6.3 6.1 5.8 5.6 5.7 5.7 5.6 5.5 5.5
7.4 7.5 7.5 7.4 7.1 6.7 6.4 6.2 6.1 6.1 6.1 6.1 6.2 6.2 6.3 6.4 6.3 6.4 6.4 6.4 6.4 6.4 6.2 6.1 5.9 5.8 5.6 5.6 5.6 5.5 5.5 5.5
7.2 7.5 7.8 7.7 7.3 6.8 6.5 6.2 6.3 6.2 6.0 6.1 6.2 6.1 6.4 6.4 6.1 6.0 6.1 6.2 6.3 6.2 6.0 5.9 5.8 5.7 5.6 5.7 5.7 5.9 6.0 6.1
7.4 7.6 7.6 7.4 6.8 6.5 6.2 6.2 6.2 6.1 6.1 6.2 6.1 6.4 6.3 5.9 5.9 6.0 6.1 6.4 6.3 5.9 5.9 5.8 5.7 5.7 5.7 5.9 6.0 6.1 6.2 6.4
7.0 7.3 7.4 7.1 6.8 6.3 6.2 6.2 6.2 6.2 6.2 6.1 6.3 6.4 6.0 6.0 6.2 6.2 6.2 6.1 6.0 6.0 5.7 5.8 5.7 5.7 5.8 5.9 5.9 6.1 6.4 6.7
7.4 7.4 7.5 7.2 7.1 6.5 6.3 6.4 6.4 6.3 6.2 6.5 6.3 6.1 6.0 6.1 6.1 6.2 6.2 6.1 6.0 6.0 5.9 5.8 5.7 5.9 5.9 5.9 6.0 6.2 6.5 6.8
7.5 7.4 7.6 7.6 7.3 6.7 6.5 6.5 6.4 6.5 6.8 6.7 6.3 6.2 6.4 6.3 6.3 6.3 6.2 6.1 6.2 6.1 5.9 5.9 6.0 6.0 6.1 6.1 6.1 6.4 6.6 6.8
7.9 7.6 7.6 7.7 7.3 7.0 6.7 6.5 6.6 7.0 7.0 6.6 6.5 6.6 6.7 6.5 6.4 6.5 6.3 6.3 6.3 6.2 6.2 6.3 6.2 6.3 6.2 6.2 6.3 6.6 6.7 6.6
8.2 7.9 7.8 7.6 7.6 6.9 6.7 6.7 7.1 7.3 7.0 6.8 6.9 6.7 6.6 6.5 6.7 6.5 6.5 6.4 6.3 6.4 6.5 6.5 6.4 6.4 6.2 6.2 6.4 6.5 6.4 6.5
8.2 8.1 8.0 7.9 7.9 7.1 6.9 7.2 7.3 7.3 7.3 7.1 6.9 6.9 6.7 6.8 6.7 6.6 6.5 6.4 6.6 6.7 6.7 6.6 6.4 6.3 6.1 6.1 6.3 6.4 6.3 6.4
7.9 7.8 7.9 8.0 7.9 7.5 7.3 7.3 7.5 7.3 7.2 7.0 7.0 7.0 6.8 6.7 6.7 6.6 6.5 6.5 6.7 6.7 6.5 6.4 6.3 6.3 6.1 6.2 6.3 6.4 6.3 6.4
7.9 7.9 8.0 8.1 7.9 7.6 7.6 7.5 7.5 7.5 7.3 7.1 7.0 7.0 6.7 6.7 6.7 6.5 6.4 6.5 6.6 6.5 6.4 6.2 6.2 6.2 6.0 6.1 6.2 6.1 6.2 6.1
7.7 7.6 7.9 8.1 7.7 7.5 7.6 7.4 7.6 7.5 7.3 7.1 7.1 6.8 6.7 6.7 6.5 6.3 6.3 6.4 6.5 6.5 6.3 6.2 6.2 6.1 5.9 6.1 6.0 6.0 6.0 5.9
7.4 7.4 7.4 7.9 7.6 7.6 7.3 7.5 7.6 7.4 7.1 7.1 6.9 6.9 6.9 6.6 6.4 6.3 6.3 6.3 6.5 6.3 6.1 6.1 6.0 6.0 5.9 5.9 5.8 5.9 5.8 5.7
7.2 7.4 7.0 7.5 7.4 7.4 7.3 7.5 7.5 7.2 7.2 7.1 7.0 7.0 6.7 6.5 6.4 6.3 6.2 6.2 6.4 6.2 6.0 5.9 5.9 5.9 5.7 5.7 5.7 5.7 5.7 5.6
7.3 7.4 7.0 6.2 7.0 7.7 7.5 7.5 7.3 7.3 7.3 7.2 7.2 6.9 6.6 6.4 6.3 6.3 6.2 6.2 6.2 6.1 6.0 5.9 5.8 5.9 5.6 5.6 5.6 5.7 5.6 5.5
7.3 7.4 6.3 6.7 6.8 7.2 7.5 7.4 7.4 7.5 7.4 7.3 7.1 6.8 6.6 6.4 6.3 6.2 6.1 6.0 6.1 6.1 5.9 5.8 5.8 5.8 5.6 5.6 5.6 5.6 5.6 5.4
Wind_Speed
19 17 16 14 14 13 12 10 10 8 6 5 5 4 5 6 8 8 9 10 12 11 9 11 12 8 9 10 12 11 10 11
19 17 16 14 13 13 12 11 10 7 6 5 4 3 4 4 7 8 9 10 12 11 10 10 12 8 9 11 10 13 10 11
18 17 15 15 15 14 13 11 10 7 5 4 3 3 4 5 6 7 9 10 11 9 10 7 9 7 8 10 11 9 8 9
21 21 19 17 16 15 13 13 11 7 8 6 5 5 4 3 3 3 6 6 7 8 7 7 7 6 7 8 9 11 8 8
22 21 20 19 17 15 14 13 11 9 6 5 3 2 3 4 2 4 3 5 6 7 7 7 7 6 7 7 7 8 8 8
23 21 20 19 16 15 13 12 11 9 6 6 5 5 4 4 3 2 2 3 5 7 8 8 7 6 7 8 8 8 6 7
20 20 19 17 16 14 14 13 10 9 7 6 6 6 4 4 3 2 3 3 3 8 6 8 9 8 7 7 7 8 8 6
21 21 20 19 18 17 14 14 12 10 9 7 7 6 5 4 3 2 2 3 4 5 7 7 7 9 8 8 6 7 7 7
21 22 21 20 19 17 16 15 13 11 10 9 6 6 4 4 3 3 4 4 4 5 7 8 9 9 9 7 5 6 7 7
22 23 21 20 18 15 16 15 13 11 10 8 7 6 5 5 5 4 4 4 3 5 7 7 8 9 9 7 6 8 8 8
19 18 20 18 11 12 14 14 13 12 11 9 7 7 6 6 5 6 6 4 5 5 7 7 8 9 10 8 7 9 9 8
18 16 18 17 15 12 12 14 13 12 10 9 8 7 7 6 6 6 5 5 5 6 6 7 8 8 9 8 8 10 10 10
15 19 17 18 16 14 7 11 9 10 11 10 9 8 7 7 7 6 6 5 6 5 6 6 7 7 8 9 9 9 10 10
13 17 18 15 16 11 9 10 14 11 7 6 10 8 8 7 7 7 6 6 5 6 6 6 6 6 7 6 8 9 8 9
11 15 15 15 16 13 16 14 14 13 12 7 9 8 7 7 8 7 6 6 7 6 6 5 5 6 7 7 7 8 8 8
18 17 19 17 17 17 17 16 16 15 15 13 11 8 9 8 8 7 7 6 6 5 5 2 5 6 5 5 6 7 7 8
20 21 21 20 20 18 18 17 17 16 15 14 14 13 12 10 10 9 9 7 7 6 4 4 3 4 7 5 5 5 5 6
20 21 20 18 19 19 19 18 17 17 16 15 15 13 12 12 11 11 10 9 9 7 5 6 5 6 4 1 2 4 4 5
19 16 17 19 18 18 17 17 17 16 16 15 15 14 13 12 11 10 10 9 8 7 5 3 5 6 4 5 9 3 4 5
Wind_Direction
175 173 169 167 151 157 148 141 135 124 123 126 116 106 83 58 56 43 32 26 14 7 3 2 353 353 356 356 347 344 331 344
167 179 167 160 155 160 154 148 142 153 159 154 144 107 103 81 68 44 33 26 17 11 1 358 359 359 357 358 352 347 344 351
171 175 168 171 169 167 157 149 152 161 155 117 99 110 84 73 62 55 30 23 17 6 2 355 360 353 360 1 359 349 348 359
177 179 180 180 176 168 164 158 152 146 135 145 128 122 126 141 110 73 55 26 22 12 5 0 357 359 4 1 7 350 350 1
183 185 184 187 177 171 164 157 149 148 174 138 151 67 117 70 77 72 80 39 32 18 4 9 13 8 12 1 9 352 360 357
186 187 187 188 171 170 161 155 149 142 139 134 147 119 115 126 120 139 103 100 50 25 15 16 18 18 15 359 357 1 5 355
183 181 185 189 170 167 160 160 142 140 134 134 125 138 138 153 123 165 90 66 50 33 20 23 26 19 17 357 357 2 360 357
182 181 188 184 173 172 165 161 150 149 144 136 134 130 119 124 145 97 100 87 54 32 24 28 23 18 13 2 4 357 5 356
189 183 186 183 179 175 169 159 155 156 147 135 138 142 132 119 90 99 76 74 58 42 30 31 27 19 10 3 16 3 360 2
189 184 185 179 180 175 167 162 158 153 145 148 144 138 137 119 126 118 97 79 89 59 44 31 29 24 14 0 23 13 5 14
188 183 181 180 134 164 167 167 156 154 152 150 149 139 132 129 122 100 91 93 72 63 56 37 32 29 22 13 27 20 17 17
186 180 179 160 149 171 170 165 158 154 155 152 145 142 138 134 119 110 103 94 78 72 66 55 37 33 32 25 36 31 23 18
186 174 182 147 162 176 161 156 123 159 155 154 149 147 150 131 119 112 108 98 83 77 79 67 61 37 46 31 36 43 27 28
189 174 187 143 167 174 156 139 154 157 103 143 151 155 146 122 119 104 84 83 78 72 76 71 57 56 58 58 34 51 44 23
181 170 191 164 170 149 170 165 164 158 151 112 93 102 115 134 113 97 89 88 89 84 70 62 60 47 49 44 49 40 42 36
186 176 184 174 173 175 177 173 168 163 163 154 148 141 138 122 124 129 121 115 110 109 108 81 84 75 47 37 48 44 35 34
194 188 184 181 181 178 180 174 171 168 168 166 167 163 153 150 150 157 144 140 138 128 122 121 131 87 70 50 41 50 37 37
193 187 182 187 189 177 182 173 172 174 170 172 170 168 164 165 166 162 161 161 159 149 165 162 143 101 75 333 267 106 65 38
185 181 182 176 186 177 173 172 174 177 174 174 171 172 171 172 172 171 169 163 166 163 156 159 124 92 50 316 317 294 54 50